[Date Prev][Date Next][Thread Prev][Thread Next] - [Date Index][Thread Index][Author Index]

2 Line ISS Keps 6-17



ISS
1 25544U 98067A   03168.11792917  .00018536  00000-0  23381-3 0  1259
2 25544  51.6339  20.5802 0006603 261.7030 251.3909 15.59617674260996


----
Via the sarex mailing list at AMSAT.ORG courtesy of AMSAT-NA.
To unsubscribe, send "unsubscribe sarex" to Majordomo@amsat.org



AMSAT Top AMSAT Home